| time (UTC) | temp F | wind direction | speed knots | gust knots | rain 1hr in | rain 24hr in | rain mn in | humidity % | barometer mb |
| 20260503050204 | 46 | 346 | 0.9 | 1.7 | 0.00 | 0.53 | 0.00 | 99 | 1013.2 |
| 20260503045705 | 46 | 332 | 0.9 | 1.7 | 0.00 | 0.53 | 0.00 | 99 | 1013.3 |
| 20260503045205 | 46 | 331 | 0.0 | 0.9 | 0.00 | 0.53 | 0.00 | 99 | 1013.2 |
| 20260503044923 | 47 | 266 | 0.9 | 0.9 | 0.00 | 0.53 | 0.00 | 99 | 1013.3 |
| 20260503044809 | 47 | 266 | 0.9 | 0.9 | 0.00 | 0.53 | 0.00 | 99 | 1013.3 |
| 20260503044427 | 47 | 325 | 0.9 | 1.7 | 0.00 | 0.53 | 0.00 | 99 | 1013.3 |
| 20260503044309 | 47 | 325 | 0.9 | 1.7 | 0.00 | 0.53 | 0.00 | 99 | 1013.3 |
| 20260503043705 | 47 | 350 | 0.9 | 1.7 | 0.00 | 0.53 | 0.00 | 99 | 1013.3 |
| 20260503043205 | 47 | 330 | 0.9 | 1.7 | 0.00 | 0.53 | 0.00 | 99 | 1013.2 |
| 20260503042719 | 47 | 324 | 0.9 | 0.9 | 0.00 | 0.53 | 0.00 | 99 | 1013.2 |
| 20260503042204 | 47 | 292 | 0.0 | 0.9 | 0.00 | 0.53 | 0.00 | 99 | 1013.2 |
| 20260503041704 | 47 | 323 | 0.0 | 0.9 | 0.00 | 0.53 | 0.00 | 99 | 1013.2 |
| 20260503041201 | 47 | 0 | 0.9 | 1.7 | 0.00 | 0.53 | 0.00 | 99 | 1013.2 |
| 20260503040648 | 47 | 0 | 0.9 | 1.7 | 0.00 | 0.53 | 0.00 | 99 | 1013.1 |
| 20260503040135 | 47 | 336 | 0.9 | 1.7 | 0.00 | 0.53 | 0.00 | 99 | 1013.1 |
| 20260503035633 | 47 | 348 | 0.9 | 1.7 | 0.00 | 0.53 | 0.53 | 99 | 1013.0 |
| 20260503035134 | 47 | 341 | 0.0 | 0.9 | 0.00 | 0.53 | 0.53 | 99 | 1012.9 |
| 20260503034633 | 47 | 343 | 0.9 | 1.7 | 0.00 | 0.53 | 0.53 | 99 | 1012.9 |
| 20260503034135 | 47 | 316 | 0.9 | 1.7 | 0.00 | 0.53 | 0.53 | 99 | 1012.9 |
| 20260503033633 | 47 | 316 | 0.9 | 1.7 | 0.00 | 0.53 | 0.53 | 99 | 1012.9 |
| 20260503033122 | 48 | 318 | 0.9 | 0.9 | 0.00 | 0.53 | 0.53 | 99 | 1012.9 |
| 20260503032619 | 48 | 334 | 0.9 | 0.9 | 0.00 | 0.53 | 0.53 | 99 | 1012.8 |
| 20260503032105 | 48 | 344 | 0.9 | 0.9 | 0.00 | 0.53 | 0.53 | 100 | 1012.7 |
| 20260503031606 | 48 | 330 | 0.0 | 0.9 | 0.00 | 0.53 | 0.53 | 100 | 1012.7 |
| 20260503031102 | 49 | 317 | 0.9 | 1.7 | 0.00 | 0.53 | 0.53 | 100 | 1012.7 |
| 20260503030604 | 49 | 341 | 0.9 | 1.7 | 0.00 | 0.53 | 0.53 | 99 | 1012.7 |
| 20260503030107 | 49 | 0 | 0.9 | 1.7 | 0.00 | 0.53 | 0.53 | 100 | 1012.7 |
| 20260503025828 | 49 | 329 | 0.9 | 1.7 | 0.00 | 0.53 | 0.53 | 100 | 1012.6 |
| 20260503025708 | 49 | 329 | 0.9 | 1.7 | 0.00 | 0.53 | 0.53 | 100 | 1012.6 |
| 20260503025103 | 49 | 350 | 0.9 | 1.7 | 0.00 | 0.53 | 0.53 | 100 | 1012.7 |
| 20260503024604 | 49 | 29 | 0.9 | 1.7 | 0.00 | 0.53 | 0.53 | 99 | 1012.7 |
| 20260503024102 | 49 | 0 | 0.9 | 0.9 | 0.00 | 0.53 | 0.53 | 99 | 1012.7 |
| 20260503023605 | 49 | 296 | 0.0 | 0.9 | 0.00 | 0.53 | 0.53 | 99 | 1012.7 |
| 20260503023103 | 49 | 0 | 0.0 | 0.9 | 0.00 | 0.53 | 0.53 | 100 | 1012.6 |
| 20260503022606 | 49 | 0 | 0.0 | 0.9 | 0.00 | 0.53 | 0.53 | 100 | 1012.8 |
| 20260503022049 | 49 | 173 | 0.9 | 0.9 | 0.00 | 0.53 | 0.53 | 99 | 1012.8 |
| 20260503021550 | 49 | 324 | 0.9 | 1.7 | 0.00 | 0.53 | 0.53 | 99 | 1012.8 |
| 20260503021314 | 49 | 315 | 0.9 | 1.7 | 0.00 | 0.53 | 0.53 | 99 | 1012.8 |
| 20260503021154 | 49 | 315 | 0.9 | 1.7 | 0.00 | 0.53 | 0.53 | 99 | 1012.8 |
| 20260503020811 | 49 | 344 | 0.9 | 1.7 | 0.00 | 0.53 | 0.53 | 99 | 1012.7 |
| 20260503020655 | 49 | 344 | 0.9 | 1.7 | 0.00 | 0.53 | 0.53 | 99 | 1012.7 |
| 20260503015550 | 49 | 354 | 0.9 | 0.9 | 0.00 | 0.53 | 0.53 | 99 | 1012.6 |
| 20260503015050 | 49 | 354 | 0.9 | 0.9 | 0.00 | 0.53 | 0.53 | 99 | 1012.5 |
| 20260503014822 | 49 | 261 | 0.9 | 1.7 | 0.00 | 0.53 | 0.53 | 99 | 1012.6 |
| 20260503014655 | 49 | 261 | 0.9 | 1.7 | 0.00 | 0.53 | 0.53 | 99 | 1012.6 |
| 20260503014049 | 49 | 339 | 0.9 | 1.7 | 0.00 | 0.53 | 0.53 | 99 | 1012.5 |
| 20260503013547 | 50 | 336 | 0.9 | 1.7 | 0.00 | 0.53 | 0.53 | 99 | 1012.4 |
| 20260503013242 | 50 | 337 | 0.9 | 1.7 | 0.00 | 0.53 | 0.53 | 98 | 1012.2 |
| 20260503013126 | 50 | 330 | 0.9 | 1.7 | 0.00 | 0.53 | 0.53 | 99 | 1012.4 |
| 20260503012905 | 50 | 279 | 0.0 | 1.7 | 0.00 | 0.53 | 0.53 | 99 | 1012.3 |
| 20260503012725 | 50 | 279 | 0.0 | 1.7 | 0.00 | 0.53 | 0.53 | 99 | 1012.3 |
| 20260503012130 | 50 | 337 | 0.9 | 1.7 | 0.00 | 0.53 | 0.53 | 98 | 1012.2 |
| 20260503011507 | 50 | 340 | 0.9 | 1.7 | 0.00 | 0.53 | 0.53 | 98 | 1012.0 |
| 20260503011010 | 51 | 334 | 0.9 | 1.7 | 0.00 | 0.53 | 0.53 | 98 | 1011.8 |
| 20260503010507 | 51 | 314 | 0.9 | 1.7 | 0.00 | 0.53 | 0.53 | 98 | 1011.8 |
| 20260503010227 | 51 | 332 | 0.9 | 1.7 | 0.00 | 0.53 | 0.53 | 98 | 1011.7 |
| 20260503010114 | 51 | 332 | 0.9 | 1.7 | 0.00 | 0.53 | 0.53 | 98 | 1011.7 |
| 20260503005507 | 51 | 328 | 0.9 | 1.7 | 0.00 | 0.53 | 0.53 | 98 | 1011.7 |
| 20260503005010 | 51 | 349 | 0.9 | 1.7 | 0.00 | 0.53 | 0.53 | 98 | 1011.7 |
| 20260503004508 | 51 | 348 | 0.9 | 1.7 | 0.00 | 0.53 | 0.53 | 98 | 1011.6 |
| 20260503004009 | 51 | 345 | 0.9 | 1.7 | 0.00 | 0.53 | 0.53 | 98 | 1011.6 |
| 20260503003508 | 51 | 335 | 0.9 | 1.7 | 0.00 | 0.53 | 0.53 | 98 | 1011.6 |
| 20260503003229 | 51 | 346 | 0.9 | 1.7 | 0.00 | 0.53 | 0.53 | 97 | 1011.4 |
| 20260503003111 | 51 | 346 | 0.9 | 1.7 | 0.00 | 0.53 | 0.53 | 97 | 1011.4 |
| 20260503002712 | 51 | 351 | 0.9 | 1.7 | 0.00 | 0.53 | 0.53 | 97 | 1011.4 |
| 20260503002556 | 51 | 351 | 0.9 | 1.7 | 0.00 | 0.53 | 0.53 | 97 | 1011.4 |
| 20260503001953 | 51 | 342 | 0.9 | 1.7 | 0.00 | 0.53 | 0.53 | 97 | 1011.4 |
| 20260503001451 | 51 | 342 | 0.9 | 1.7 | 0.00 | 0.53 | 0.53 | 97 | 1011.3 |
| 20260503001217 | 52 | 0 | 0.9 | 1.7 | 0.00 | 0.53 | 0.53 | 97 | 1011.2 |
| 20260503001058 | 52 | 0 | 0.9 | 1.7 | 0.00 | 0.53 | 0.53 | 97 | 1011.2 |
| 20260503000451 | 52 | 331 | 0.9 | 1.7 | 0.00 | 0.53 | 0.53 | 96 | 1011.2 |
| 20260502235955 | 52 | 279 | 0.9 | 1.7 | 0.00 | 0.53 | 0.53 | 96 | 1011.1 |
| 20260502235452 | 52 | 315 | 0.9 | 1.7 | 0.00 | 0.53 | 0.53 | 96 | 1011.1 |
| 20260502234953 | 52 | 355 | 0.9 | 1.7 | 0.00 | 0.53 | 0.53 | 96 | 1011.0 |
| 20260502234437 | 52 | 328 | 0.9 | 1.7 | 0.00 | 0.53 | 0.53 | 96 | 1011.1 |
| 20260502233939 | 53 | 355 | 0.9 | 1.7 | 0.00 | 0.53 | 0.53 | 95 | 1011.1 |
| 20260502233438 | 53 | 353 | 0.9 | 1.7 | 0.00 | 0.53 | 0.53 | 95 | 1011.0 |
| 20260502232937 | 53 | 17 | 0.9 | 1.7 | 0.00 | 0.53 | 0.53 | 95 | 1010.9 |
| 20260502232439 | 53 | 25 | 0.9 | 1.7 | 0.00 | 0.53 | 0.53 | 95 | 1010.9 |
| 20260502231941 | 53 | 0 | 0.9 | 1.7 | 0.00 | 0.53 | 0.53 | 95 | 1010.9 |
| 20260502231423 | 53 | 24 | 0.9 | 1.7 | 0.00 | 0.53 | 0.53 | 95 | 1010.9 |
| 20260502230924 | 53 | 348 | 0.9 | 1.7 | 0.00 | 0.53 | 0.53 | 95 | 1010.9 |
| 20260502230423 | 53 | 284 | 0.9 | 1.7 | 0.00 | 0.53 | 0.53 | 95 | 1010.9 |
| 20260502225923 | 53 | 25 | 0.9 | 1.7 | 0.00 | 0.53 | 0.53 | 95 | 1010.9 |
| 20260502225423 | 53 | 355 | 0.9 | 0.9 | 0.00 | 0.53 | 0.53 | 95 | 1010.9 |
| 20260502224924 | 53 | 343 | 0.0 | 0.9 | 0.00 | 0.53 | 0.53 | 95 | 1010.9 |
| 20260502224423 | 53 | 0 | 0.0 | 0.9 | 0.00 | 0.53 | 0.53 | 94 | 1010.8 |
| 20260502223923 | 53 | 346 | 0.0 | 0.9 | 0.00 | 0.53 | 0.53 | 94 | 1010.8 |
| 20260502223423 | 53 | 0 | 0.9 | 0.9 | 0.00 | 0.53 | 0.53 | 94 | 1010.8 |
| 20260502222907 | 53 | 323 | 0.9 | 1.7 | 0.00 | 0.53 | 0.53 | 93 | 1010.8 |
| 20260502222850 | 53 | 344 | 0.9 | 1.7 | 0.00 | 0.53 | 0.53 | 93 | 1010.7 |
| 20260502222513 | 53 | 344 | 0.9 | 1.7 | 0.00 | 0.53 | 0.53 | 93 | 1010.7 |
| 20260502221907 | 53 | 21 | 0.9 | 2.6 | 0.00 | 0.53 | 0.53 | 92 | 1010.7 |
| 20260502221411 | 53 | 106 | 1.7 | 2.6 | 0.00 | 0.53 | 0.53 | 92 | 1010.7 |
| 20260502220910 | 53 | 64 | 0.9 | 2.6 | 0.00 | 0.53 | 0.53 | 93 | 1010.6 |
| 20260502220640 | 53 | 347 | 0.9 | 1.7 | 0.00 | 0.53 | 0.53 | 93 | 1010.6 |
| 20260502220515 | 53 | 347 | 0.9 | 1.7 | 0.00 | 0.53 | 0.53 | 93 | 1010.6 |
| 20260502215911 | 53 | 353 | 0.9 | 1.7 | 0.00 | 0.53 | 0.53 | 95 | 1010.7 |
| 20260502215412 | 53 | 16 | 0.9 | 3.5 | 0.01 | 0.53 | 0.53 | 94 | 1010.5 |
| 20260502214910 | 53 | 79 | 1.7 | 3.5 | 0.01 | 0.53 | 0.53 | 94 | 1010.5 |
| 20260502214408 | 53 | 4 | 1.7 | 2.6 | 0.01 | 0.53 | 0.53 | 94 | 1010.6 |
| 20260502213908 | 53 | 8 | 1.7 | 2.6 | 0.01 | 0.53 | 0.53 | 93 | 1010.6 |
| 20260502213408 | 53 | 83 | 1.7 | 2.6 | 0.01 | 0.53 | 0.53 | 93 | 1010.6 |
| 20260502212908 | 53 | 145 | 1.7 | 2.6 | 0.02 | 0.53 | 0.53 | 94 | 1010.7 |
| 20260502212408 | 53 | 70 | 1.7 | 5.2 | 0.02 | 0.53 | 0.53 | 93 | 1010.7 |
| 20260502211902 | 53 | 50 | 1.7 | 5.2 | 0.02 | 0.53 | 0.53 | 93 | 1010.6 |
| 20260502211358 | 53 | 122 | 1.7 | 4.3 | 0.02 | 0.53 | 0.53 | 93 | 1010.7 |
| 20260502211119 | 53 | 81 | 0.9 | 2.6 | 0.02 | 0.53 | 0.53 | 94 | 1010.6 |
| 20260502211003 | 53 | 81 | 0.9 | 2.6 | 0.02 | 0.53 | 0.53 | 94 | 1010.6 |
| 20260502210358 | 53 | 53 | 1.7 | 2.6 | 0.02 | 0.53 | 0.53 | 94 | 1010.6 |
| 20260502205859 | 53 | 36 | 0.9 | 1.7 | 0.01 | 0.53 | 0.53 | 94 | 1010.7 |
| 20260502205358 | 53 | 42 | 0.9 | 2.6 | 0.01 | 0.52 | 0.52 | 94 | 1010.6 |
| 20260502204859 | 53 | 21 | 1.7 | 4.3 | 0.01 | 0.52 | 0.52 | 94 | 1010.7 |
| 20260502204604 | 53 | 32 | 1.7 | 4.3 | 0.01 | 0.52 | 0.52 | 94 | 1010.6 |
| 20260502204448 | 53 | 32 | 1.7 | 4.3 | 0.01 | 0.52 | 0.52 | 94 | 1010.6 |
| 20260502203840 | 53 | 6 | 1.7 | 3.5 | 0.01 | 0.52 | 0.52 | 94 | 1010.7 |
| 20260502203341 | 53 | 80 | 1.7 | 2.6 | 0.01 | 0.52 | 0.52 | 93 | 1010.7 |
| 20260502203333 | 53 | 119 | 1.7 | 2.6 | 0.01 | 0.52 | 0.52 | 93 | 1010.7 |
| 20260502202945 | 53 | 119 | 1.7 | 2.6 | 0.01 | 0.52 | 0.52 | 93 | 1010.7 |
| 20260502202603 | 53 | 141 | 1.7 | 2.6 | 0.01 | 0.52 | 0.52 | 93 | 1010.6 |
| 20260502202446 | 53 | 141 | 1.7 | 2.6 | 0.01 | 0.52 | 0.52 | 93 | 1010.6 |
| 20260502201841 | 53 | 53 | 1.7 | 2.6 | 0.01 | 0.52 | 0.52 | 93 | 1010.6 |
| 20260502201610 | 53 | 248 | 0.9 | 2.6 | 0.01 | 0.52 | 0.52 | 94 | 1010.7 |
| 20260502201341 | 53 | 248 | 0.9 | 2.6 | 0.01 | 0.52 | 0.52 | 94 | 1010.7 |
| 20260502201104 | 53 | 37 | 1.7 | 2.6 | 0.01 | 0.52 | 0.52 | 94 | 1010.7 |
| 20260502200946 | 53 | 37 | 1.7 | 2.6 | 0.01 | 0.52 | 0.52 | 94 | 1010.7 |
| 20260502200341 | 53 | 52 | 1.7 | 2.6 | 0.01 | 0.52 | 0.52 | 95 | 1010.8 |
| 20260502200110 | 53 | 34 | 1.7 | 2.6 | 0.02 | 0.52 | 0.52 | 95 | 1010.9 |
| 20260502195842 | 53 | 63 | 1.7 | 2.6 | 0.01 | 0.52 | 0.52 | 95 | 1010.8 |
| 20260502195445 | 53 | 34 | 1.7 | 2.6 | 0.02 | 0.52 | 0.52 | 95 | 1010.9 |
| 20260502194841 | 53 | 52 | 1.7 | 3.5 | 0.02 | 0.52 | 0.52 | 95 | 1010.9 |
| 20260502194342 | 53 | 54 | 1.7 | 3.5 | 0.02 | 0.52 | 0.52 | 95 | 1010.9 |
| 20260502193829 | 53 | 3 | 1.7 | 3.5 | 0.02 | 0.51 | 0.51 | 95 | 1010.9 |
| 20260502193330 | 53 | 340 | 1.7 | 3.5 | 0.02 | 0.51 | 0.51 | 96 | 1011.0 |
| 20260502192829 | 53 | 269 | 1.7 | 3.5 | 0.02 | 0.51 | 0.51 | 96 | 1011.1 |
| 20260502192313 | 53 | 356 | 1.7 | 3.5 | 0.02 | 0.51 | 0.51 | 96 | 1011.2 |
| 20260502192041 | 53 | 20 | 1.7 | 2.6 | 0.02 | 0.51 | 0.51 | 96 | 1011.3 |
| 20260502191812 | 53 | 20 | 1.7 | 2.6 | 0.02 | 0.51 | 0.51 | 96 | 1011.3 |
| 20260502191322 | 53 | 18 | 1.7 | 2.6 | 0.02 | 0.50 | 0.50 | 96 | 1011.2 |
| 20260502191313 | 53 | 84 | 1.7 | 2.6 | 0.02 | 0.50 | 0.50 | 96 | 1011.3 |
| 20260502190813 | 53 | 18 | 1.7 | 2.6 | 0.02 | 0.50 | 0.50 | 96 | 1011.2 |
| 20260502190313 | 53 | 253 | 0.9 | 1.7 | 0.02 | 0.50 | 0.50 | 96 | 1011.3 |
| 20260502190037 | 53 | 242 | 0.9 | 1.7 | 0.02 | 0.50 | 0.50 | 96 | 1011.3 |
| 20260502185924 | 53 | 242 | 0.9 | 1.7 | 0.02 | 0.50 | 0.50 | 96 | 1011.3 |
| 20260502185257 | 53 | 82 | 1.7 | 1.7 | 0.02 | 0.50 | 0.50 | 96 | 1011.3 |
| 20260502184759 | 52 | 129 | 1.7 | 1.7 | 0.02 | 0.50 | 0.50 | 96 | 1011.2 |
| 20260502184242 | 52 | 62 | 1.7 | 1.7 | 0.03 | 0.50 | 0.50 | 96 | 1011.2 |
| 20260502183744 | 52 | 104 | 1.7 | 1.7 | 0.03 | 0.50 | 0.50 | 96 | 1011.3 |
| 20260502183243 | 52 | 74 | 1.7 | 1.7 | 0.02 | 0.50 | 0.49 | 96 | 1011.2 |
| 20260502182743 | 52 | 64 | 1.7 | 2.6 | 0.03 | 0.51 | 0.49 | 95 | 1011.3 |
| 20260502182244 | 52 | 80 | 1.7 | 3.5 | 0.03 | 0.51 | 0.49 | 96 | 1011.8 |
| 20260502181743 | 52 | 78 | 1.7 | 3.5 | 0.02 | 0.50 | 0.49 | 96 | 1011.7 |
| 20260502181243 | 52 | 48 | 1.7 | 8.7 | 0.02 | 0.50 | 0.48 | 96 | 1011.5 |
| 20260502180739 | 52 | 87 | 1.7 | 9.6 | 0.02 | 0.50 | 0.48 | 96 | 1011.5 |
| 20260502180239 | 52 | 92 | 2.6 | 9.6 | 0.02 | 0.50 | 0.48 | 96 | 1011.4 |
| 20260502170203 | 52 | 343 | 1.7 | 5.2 | 0.07 | 0.48 | 0.46 | 97 | 1011.6 |
| 20260502164129 | 52 | 30 | 1.7 | 3.5 | 0.07 | 0.47 | 0.44 | 98 | 1012.4 |
| 20260502163615 | 52 | 63 | 1.7 | 3.5 | 0.07 | 0.46 | 0.44 | 98 | 1012.5 |
| 20260502163115 | 52 | 35 | 1.7 | 3.5 | 0.06 | 0.46 | 0.43 | 97 | 1012.5 |
| 20260502162614 | 52 | 61 | 1.7 | 3.5 | 0.06 | 0.45 | 0.43 | 97 | 1012.6 |
| 20260502162113 | 52 | 74 | 0.9 | 1.7 | 0.05 | 0.44 | 0.42 | 98 | 1012.8 |
| 20260502161616 | 52 | 4 | 0.9 | 1.7 | 0.05 | 0.43 | 0.41 | 98 | 1012.8 |
| 20260502161113 | 52 | 352 | 0.9 | 1.7 | 0.04 | 0.43 | 0.40 | 97 | 1012.7 |
| 20260502160617 | 52 | 0 | 0.9 | 1.7 | 0.04 | 0.42 | 0.39 | 98 | 1012.8 |
| 20260502160119 | 52 | 330 | 0.9 | 1.7 | 0.04 | 0.41 | 0.39 | 98 | 1012.8 |
| 20260502152207 | 52 | 331 | 0.9 | 1.7 | 0.09 | 0.39 | 0.37 | 98 | 1012.3 |
| 20260502151600 | 52 | 19 | 0.9 | 1.7 | 0.09 | 0.39 | 0.36 | 98 | 1012.4 |
| 20260502151046 | 52 | 343 | 0.9 | 1.7 | 0.09 | 0.38 | 0.35 | 98 | 1012.5 |
| 20260502150546 | 52 | 110 | 0.9 | 2.6 | 0.09 | 0.37 | 0.35 | 98 | 1012.6 |
| 20260502140121 | 53 | 119 | 1.7 | 3.5 | 0.03 | 0.28 | 0.25 | 98 | 1011.7 |
| 20260502130503 | 52 | 321 | 1.7 | 2.6 | 0.06 | 0.26 | 0.22 | 98 | 1011.3 |
| 20260502123455 | 52 | 318 | 2.6 | 5.2 | 0.07 | 0.24 | 0.20 | 97 | 1011.0 |
| 20260502122954 | 52 | 338 | 1.7 | 2.6 | 0.07 | 0.23 | 0.20 | 97 | 1011.0 |
| 20260502122450 | 52 | 327 | 2.6 | 6.1 | 0.08 | 0.22 | 0.19 | 97 | 1010.9 |
| 20260502121938 | 52 | 327 | 3.5 | 6.1 | 0.09 | 0.22 | 0.19 | 97 | 1010.9 |
| 20260502121436 | 52 | 344 | 2.6 | 4.3 | 0.09 | 0.21 | 0.18 | 97 | 1010.8 |
| 20260502121408 | 52 | 343 | 1.7 | 2.6 | 0.10 | 0.21 | 0.18 | 97 | 1010.8 |
| 20260502121027 | 52 | 343 | 1.7 | 2.6 | 0.10 | 0.21 | 0.18 | 97 | 1010.8 |
| 20260502120420 | 52 | 25 | 1.7 | 2.6 | 0.11 | 0.20 | 0.17 | 97 | 1010.7 |
| 20260502115922 | 52 | 0 | 1.7 | 2.6 | 0.11 | 0.20 | 0.17 | 97 | 1010.8 |
| 20260502115421 | 52 | 14 | 1.7 | 2.6 | 0.11 | 0.19 | 0.16 | 97 | 1010.8 |
| 20260502114919 | 52 | 14 | 1.7 | 2.6 | 0.12 | 0.19 | 0.16 | 97 | 1010.8 |
| 20260502114637 | 52 | 1 | 2.6 | 6.1 | 0.12 | 0.18 | 0.15 | 97 | 1010.8 |
| 20260502114521 | 52 | 1 | 2.6 | 6.1 | 0.12 | 0.18 | 0.15 | 97 | 1010.8 |
| 20260502113909 | 52 | 8 | 2.6 | 6.1 | 0.11 | 0.17 | 0.14 | 97 | 1010.9 |
| 20260502113624 | 52 | 351 | 1.7 | 4.3 | 0.11 | 0.17 | 0.13 | 97 | 1011.0 |
| 20260502113512 | 52 | 351 | 1.7 | 4.3 | 0.11 | 0.17 | 0.13 | 97 | 1011.0 |
| 20260502112905 | 52 | 316 | 1.7 | 3.5 | 0.11 | 0.15 | 0.12 | 97 | 1011.1 |
| 20260502112405 | 52 | 354 | 1.7 | 3.5 | 0.09 | 0.14 | 0.11 | 97 | 1011.2 |
| 20260502112109 | 52 | 264 | 1.7 | 3.5 | 0.09 | 0.13 | 0.09 | 97 | 1011.1 |
| 20260502111956 | 52 | 264 | 1.7 | 3.5 | 0.09 | 0.13 | 0.09 | 97 | 1011.1 |
| 20260502111352 | 53 | 320 | 2.6 | 3.5 | 0.08 | 0.11 | 0.08 | 97 | 1011.1 |
| 20260502111106 | 53 | 294 | 2.6 | 3.5 | 0.07 | 0.10 | 0.07 | 97 | 1011.0 |
| 20260502110954 | 53 | 294 | 2.6 | 3.5 | 0.07 | 0.10 | 0.07 | 97 | 1011.0 |
| 20260502110351 | 53 | 288 | 2.6 | 4.3 | 0.06 | 0.09 | 0.06 | 96 | 1011.0 |
| 20260502105850 | 53 | 292 | 2.6 | 4.3 | 0.06 | 0.09 | 0.06 | 96 | 1011.0 |
| 20260502105350 | 53 | 292 | 2.6 | 3.5 | 0.05 | 0.08 | 0.05 | 96 | 1011.0 |
| 20260502104850 | 53 | 284 | 2.6 | 3.5 | 0.04 | 0.07 | 0.04 | 96 | 1011.0 |
| 20260502104350 | 53 | 310 | 1.7 | 2.6 | 0.03 | 0.06 | 0.03 | 96 | 1011.0 |
| 20260502103850 | 53 | 326 | 0.9 | 1.7 | 0.03 | 0.06 | 0.03 | 95 | 1010.9 |
| 20260502103350 | 53 | 324 | 0.9 | 1.7 | 0.02 | 0.05 | 0.02 | 95 | 1010.9 |
| 20260502102850 | 53 | 319 | 0.9 | 1.7 | 0.02 | 0.05 | 0.02 | 95 | 1010.9 |
| 20260502102350 | 53 | 319 | 0.9 | 1.7 | 0.01 | 0.04 | 0.01 | 94 | 1010.9 |
| 20260502102336 | 53 | 331 | 0.9 | 1.7 | 0.01 | 0.04 | 0.01 | 94 | 1010.9 |
| 20260502101955 | 53 | 331 | 0.9 | 1.7 | 0.01 | 0.04 | 0.01 | 94 | 1010.9 |
| 20260502101554 | 53 | 308 | 0.9 | 1.7 | 0.00 | 0.04 | 0.00 | 94 | 1011.0 |
| 20260502101440 | 53 | 308 | 0.9 | 1.7 | 0.00 | 0.04 | 0.00 | 94 | 1011.0 |
| 20260502100836 | 53 | 299 | 0.9 | 1.7 | 0.00 | 0.04 | 0.00 | 94 | 1010.9 |
| 20260502100335 | 53 | 276 | 0.9 | 1.7 | 0.00 | 0.04 | 0.00 | 94 | 1010.9 |
| 20260502091322 | 53 | 321 | 0.9 | 1.7 | 0.00 | 0.03 | 0.00 | 97 | 1010.9 |
| 20260502090823 | 53 | 333 | 0.9 | 1.7 | 0.00 | 0.03 | 0.00 | 97 | 1010.9 |
| 20260502090307 | 53 | 274 | 0.9 | 1.7 | 0.00 | 0.03 | 0.00 | 97 | 1010.9 |
| 20260502071220 | 52 | 322 | 0.9 | 1.7 | 0.00 | 0.03 | 0.00 | 98 | 1010.4 |
| 20260502070722 | 52 | 326 | 0.9 | 1.7 | 0.00 | 0.03 | 0.00 | 98 | 1010.5 |
| 20260502070222 | 51 | 330 | 0.9 | 1.7 | 0.00 | 0.03 | 0.00 | 98 | 1010.6 |
| 20260502065722 | 51 | 322 | 0.9 | 0.9 | 0.00 | 0.03 | 0.00 | 98 | 1010.7 |
| 20260502065222 | 51 | 327 | 0.9 | 1.7 | 0.00 | 0.03 | 0.00 | 98 | 1010.7 |
| 20260502064722 | 51 | 174 | 0.9 | 1.7 | 0.00 | 0.03 | 0.00 | 98 | 1010.8 |
| 20260502064222 | 51 | 329 | 0.9 | 0.9 | 0.00 | 0.03 | 0.00 | 98 | 1010.7 |
| 20260502063723 | 51 | 321 | 0.0 | 0.9 | 0.00 | 0.03 | 0.00 | 98 | 1010.7 |
| 20260502063222 | 51 | 304 | 0.9 | 1.7 | 0.00 | 0.03 | 0.00 | 98 | 1010.7 |
| 20260502062723 | 51 | 330 | 0.9 | 1.7 | 0.00 | 0.03 | 0.00 | 98 | 1010.8 |
| 20260502062210 | 51 | 318 | 0.9 | 1.7 | 0.00 | 0.03 | 0.00 | 98 | 1010.9 |
| 20260502061720 | 51 | 0 | 0.0 | 1.7 | 0.00 | 0.03 | 0.00 | 98 | 1010.9 |
| 20260502061709 | 51 | 281 | 0.9 | 0.9 | 0.00 | 0.03 | 0.00 | 98 | 1010.9 |
| 20260502061314 | 51 | 0 | 0.0 | 1.7 | 0.00 | 0.03 | 0.00 | 98 | 1010.9 |
| 20260502060706 | 51 | 306 | 0.9 | 1.7 | 0.00 | 0.03 | 0.00 | 98 | 1010.9 |
| 20260502060421 | 51 | 314 | 0.9 | 1.7 | 0.00 | 0.03 | 0.00 | 98 | 1011.0 |
| 20260502060300 | 51 | 314 | 0.9 | 1.7 | 0.00 | 0.03 | 0.00 | 98 | 1011.0 |
| 20260502055654 | 51 | 278 | 0.9 | 1.7 | 0.00 | 0.03 | 0.00 | 98 | 1011.0 |
| 20260502055152 | 51 | 329 | 0.9 | 1.7 | 0.00 | 0.03 | 0.00 | 97 | 1011.1 |
| 20260502054648 | 51 | 316 | 0.9 | 1.7 | 0.00 | 0.03 | 0.00 | 97 | 1011.2 |
| 20260502054149 | 51 | 325 | 0.9 | 1.7 | 0.00 | 0.03 | 0.00 | 97 | 1011.1 |
| 20260502053650 | 51 | 339 | 0.9 | 1.7 | 0.00 | 0.03 | 0.00 | 97 | 1011.2 |
| 20260502053150 | 51 | 332 | 0.9 | 1.7 | 0.00 | 0.03 | 0.00 | 97 | 1011.2 |
| 20260502052649 | 51 | 306 | 0.9 | 1.7 | 0.00 | 0.03 | 0.00 | 97 | 1011.2 |
| 20260502052148 | 51 | 344 | 0.9 | 1.7 | 0.00 | 0.03 | 0.00 | 97 | 1011.3 |
| 20260502051651 | 51 | 337 | 0.9 | 1.7 | 0.00 | 0.03 | 0.00 | 97 | 1011.4 |
| 20260502051415 | 51 | 345 | 0.9 | 1.7 | 0.00 | 0.03 | 0.00 | 97 | 1011.4 |
| 20260502051255 | 51 | 345 | 0.9 | 1.7 | 0.00 | 0.03 | 0.00 | 97 | 1011.4 |
| 20260502050650 | 51 | 313 | 0.9 | 1.7 | 0.00 | 0.03 | 0.00 | 97 | 1011.4 |